TimeEDT,TemperatureF,Dew PointF,Humidity,Sea Level PressureIn,VisibilityMPH,Wind Direction,Wind SpeedMPH,Gust SpeedMPH,PrecipitationIn,Events,Conditions,WindDirDegrees,DateUTC
12:10 AM,35.6,32.0,87,29.50,10.0,WSW,9.2,23.0,N/A,,Overcast,240,2013-03-25 04:10:00
12:39 AM,35.6,30.2,81,29.50,10.0,SW,11.5,24.2,0.00,Rain,Light Rain,230,2013-03-25 04:39:00
12:53 AM,35.1,30.9,85,29.51,10.0,SW,13.8,21.9,0.00,,Overcast,230,2013-03-25 04:53:00
1:53 AM,35.1,30.0,82,29.52,10.0,WSW,9.2,19.6,0.00,,Overcast,240,2013-03-25 05:53:00
2:45 AM,33.8,30.2,87,29.51,2.5,SW,8.1,-,0.00,Snow,Light Snow,220,2013-03-25 06:45:00
2:53 AM,33.1,30.9,92,29.52,2.5,SW,6.9,-,0.00,Snow,Light Snow,230,2013-03-25 06:53:00
3:04 AM,33.8,30.2,87,29.52,3.0,SW,10.4,-,0.00,Snow,Light Snow,230,2013-03-25 07:04:00
3:53 AM,34.0,30.0,85,29.55,10.0,West,15.0,-,0.00,,Overcast,280,2013-03-25 07:53:00
4:04 AM,33.8,30.2,87,29.54,10.0,West,18.4,25.3,N/A,,Overcast,260,2013-03-25 08:04:00
4:53 AM,33.1,28.0,82,29.57,10.0,WNW,18.4,27.6,N/A,,Overcast,290,2013-03-25 08:53:00
5:50 AM,32.0,28.4,87,29.58,10.0,West,12.7,20.7,0.00,,Overcast,280,2013-03-25 09:50:00
5:53 AM,32.0,28.0,85,29.59,10.0,West,13.8,20.7,0.00,,Overcast,280,2013-03-25 09:53:00
6:29 AM,32.0,28.4,87,29.60,4.0,West,15.0,-,0.00,Snow,Light Snow,280,2013-03-25 10:29:00
6:53 AM,32.0,28.0,85,29.62,10.0,West,11.5,-,0.00,,Overcast,270,2013-03-25 10:53:00
7:53 AM,32.0,27.0,82,29.64,5.0,WNW,12.7,-,0.00,Snow,Light Snow,300,2013-03-25 11:53:00
8:53 AM,32.0,27.0,82,29.67,7.0,WNW,15.0,20.7,0.00,Snow,Light Snow,290,2013-03-25 12:53:00
9:53 AM,33.1,27.0,78,29.70,4.0,West,15.0,23.0,0.00,Snow,Light Snow,280,2013-03-25 13:53:00
10:53 AM,34.0,28.0,79,29.72,7.0,West,20.7,25.3,0.00,,Overcast,280,2013-03-25 14:53:00
11:14 AM,33.8,28.4,81,29.72,2.5,West,16.1,23.0,0.00,Snow,Light Snow,280,2013-03-25 15:14:00
11:53 AM,34.0,28.9,82,29.75,2.5,West,17.3,24.2,0.00,Snow,Light Snow,280,2013-03-25 15:53:00
12:02 PM,33.8,28.4,81,29.74,1.8,West,17.3,23.0,0.00,Snow,Light Snow,270,2013-03-25 16:02:00
12:13 PM,33.8,28.4,81,29.75,2.5,West,13.8,23.0,0.00,Snow,Light Snow,280,2013-03-25 16:13:00
12:27 PM,33.8,28.4,81,29.75,1.5,West,17.3,25.3,0.00,Snow,Light Snow,280,2013-03-25 16:27:00
12:53 PM,34.0,28.9,82,29.78,2.0,West,17.3,23.0,0.00,Snow,Light Snow,280,2013-03-25 16:53:00
1:10 PM,35.6,28.4,75,29.77,3.0,West,16.1,21.9,0.00,Snow,Light Snow,280,2013-03-25 17:10:00
1:18 PM,35.6,30.2,81,29.77,2.0,West,15.0,21.9,0.00,Snow,Light Snow,270,2013-03-25 17:18:00
1:34 PM,35.6,28.4,75,29.77,4.0,West,13.8,24.2,0.00,Snow,Light Snow,280,2013-03-25 17:34:00
1:49 PM,35.6,28.4,75,29.78,1.8,West,16.1,24.2,0.00,Snow,Light Snow,270,2013-03-25 17:49:00
1:50 PM,35.1,30.0,82,29.80,1.8,West,18.4,24.2,0.00,Snow,Light Snow,270,2013-03-25 17:50:00
2:18 PM,35.6,30.2,81,29.79,3.0,WNW,16.1,-,0.00,Snow,Light Snow,290,2013-03-25 18:18:00
2:53 PM,35.1,28.0,76,29.82,1.8,WNW,17.3,25.3,0.00,Snow,Light Snow,290,2013-03-25 18:53:00
3:02 PM,35.6,28.4,75,29.81,2.5,WNW,15.0,26.5,0.00,Snow,Light Snow,300,2013-03-25 19:02:00
3:19 PM,35.6,30.2,81,29.81,5.0,West,15.0,-,0.00,Snow,Light Snow,280,2013-03-25 19:19:00
3:34 PM,35.6,28.4,75,29.81,9.0,WNW,13.8,23.0,0.00,Snow,Light Snow,300,2013-03-25 19:34:00
3:41 PM,37.4,28.4,70,29.81,9.0,WNW,17.3,24.2,0.00,Snow,Light Snow,290,2013-03-25 19:41:00
3:53 PM,36.0,28.9,76,29.83,9.0,WNW,21.9,28.8,0.00,Snow,Light Snow,300,2013-03-25 19:53:00
4:25 PM,35.6,28.4,75,29.83,8.0,WNW,18.4,29.9,0.00,Snow,Light Snow,300,2013-03-25 20:25:00
4:53 PM,35.1,28.0,76,29.86,9.0,West,16.1,24.2,0.00,Snow,Light Snow,270,2013-03-25 20:53:00
5:53 PM,35.1,28.9,78,29.90,4.0,West,12.7,23.0,0.00,Snow,Light Snow,270,2013-03-25 21:53:00
6:53 PM,34.0,28.0,79,29.93,9.0,WNW,13.8,23.0,0.00,Snow,Light Snow,290,2013-03-25 22:53:00
7:53 PM,34.0,28.0,79,29.96,4.0,West,13.8,-,0.00,Snow,Light Snow,270,2013-03-25 23:53:00
8:53 PM,33.1,28.9,85,29.99,6.0,West,13.8,19.6,0.00,Snow,Light Snow,280,2013-03-26 00:53:00
9:32 PM,33.8,28.4,81,29.98,2.5,West,10.4,-,0.00,Snow,Light Snow,270,2013-03-26 01:32:00
9:53 PM,33.1,30.0,89,30.01,3.0,West,10.4,-,0.00,Snow,Light Snow,280,2013-03-26 01:53:00
10:17 PM,33.8,30.2,87,30.00,7.0,West,9.2,-,0.00,,Overcast,270,2013-03-26 02:17:00
10:26 PM,33.8,30.2,87,30.00,7.0,West,9.2,-,0.00,,Overcast,280,2013-03-26 02:26:00
10:34 PM,33.8,30.2,87,30.00,7.0,West,11.5,-,0.00,,Overcast,270,2013-03-26 02:34:00
10:53 PM,34.0,30.0,85,30.02,8.0,West,8.1,-,0.00,,Overcast,280,2013-03-26 02:53:00
11:49 PM,33.8,30.2,87,30.02,2.5,WNW,11.5,-,0.00,Snow,Light Snow,290,2013-03-26 03:49:00
11:53 PM,34.0,30.0,85,30.04,2.5,West,10.4,-,0.00,Snow,Light Snow,280,2013-03-26 03:53:00